#timestamp,LO_Frequency,Hit,StdDev 
1556989215.1,286047001.0,N
1556989235.9,286047001.0,N
1556989255.7,286047000.5,N
1556989275.5,286046999.1,N
1556989295.4,286046996.6,N
1556989315.2,286046998.9,N
1556989335.0,286046998.2,N
1556989335.9,286046998.2,N
1556989355.8,286046998.2,N
1556989375.6,286047000.3,N
1556989395.5,286046999.8,N
1556989415.3,286046998.8,N
1556989435.1,286046999.2,N
1556989455.9,286046998.4,N
1556989475.7,286046998.4,N
1556989495.5,286046999.0,N
1556989515.4,286046998.6,N
1556989535.2,286046999.2,N
1556989555.1,286046994.9,Y
1556989556.0,286046994.9,P
1556989575.8,286046998.4,N
1556989595.6,286046999.6,N
1556989615.5,286046999.1,N
1556989635.3,286046997.6,N
1556989655.1,286046997.1,N
1556989675.9,286046999.5,N
1556989695.7,286047001.0,N
1556989715.6,286046999.0,N
1556989735.4,286046997.0,N
1556989755.2,286046996.7,N
1556989775.1,286046998.7,N
1556989776.0,286046998.7,N
1556989795.6,286046999.1,N
1556989815.4,286046996.6,N
1556989835.3,286046999.2,N
1556989855.1,286046998.1,N
1556989875.9,286046999.8,N
1556989895.7,286047000.8,N
1556989915.5,286047001.2,N
1556989935.4,286046996.7,N
1556989955.2,286046997.2,N
1556989975.0,286046999.6,N
1556989975.9,286046999.6,N
1556989995.8,286046997.1,N
1556990015.6,286046997.2,N
1556990035.5,286046996.7,N
1556990055.3,286046999.4,N
1556990075.1,286046996.7,N
1556990095.9,286046997.4,N
1556990115.7,286046996.8,N
1556990135.5,286046994.9,Y
1556990155.4,286046998.1,P
1556990175.2,286047000.3,N
1556990195.1,286047003.6,P
1556990196.0,286047003.6,N
1556990215.8,286047003.5,N
1556990235.6,286047001.3,N
1556990255.5,286047002.6,N
1556990275.3,286047001.5,N
1556990295.1,286047001.7,N
1556990315.9,286047002.8,N
1556990335.7,286047000.2,N
1556990355.5,286047000.1,N
1556990375.4,286046998.2,N
1556990395.2,286046998.2,N
1556990415.1,286047001.2,N
1556990416.0,286047001.2,N
1556990435.9,286047000.2,N
1556990455.7,286046999.7,N
1556990475.6,286047000.6,N
1556990495.4,286047000.5,N
1556990515.2,286047000.7,N
1556990535.1,286047000.4,N
1556990536.0,286047000.4,N
1556990555.8,286046999.9,N
1556990575.6,286046998.1,N
1556990595.5,286046998.8,N
1556990615.3,286047001.0,N
1556990635.2,286046998.6,N
1556990655.9,286046998.4,N
1556990675.7,286046998.1,N
1556990695.6,286047000.3,N
1556990715.4,286047000.0,N
1556990735.2,286047002.3,N
1556990755.1,286047000.1,N
1556990756.0,286047000.1,N
1556990775.8,286046998.8,N
1556990795.7,286047000.5,N
1556990815.5,286047002.7,N
1556990835.3,286047002.6,N
1556990855.2,286047001.6,N
1556990875.0,286047001.2,N
1556990875.9,286047001.2,N
1556990895.7,286046996.7,N
1556990915.6,286046997.4,N
1556990935.4,286047001.0,N
1556990955.3,286047000.2,N
1556990975.1,286047001.5,N
1556990995.8,286047000.3,N
1556991015.7,286047000.7,N
1556991035.5,286047000.7,N
1556991055.3,286047000.9,N
1556991075.2,286046999.0,N
1556991095.0,286046999.4,N
1556991095.9,286046999.4,N
1556991115.8,286046999.6,N
1556991135.6,286046999.0,N
1556991155.4,286047000.8,N
1556991175.3,286047002.4,N
1556991195.1,286047000.0,N
1556991215.9,286047003.7,N
1556991235.7,286047001.3,N
1556991255.5,286047001.3,N
1556991275.4,286047003.5,N
1556991295.2,286047003.7,N
1556991315.0,286047002.5,N
1556991315.9,286047002.5,N
1556991335.8,286047001.8,N
1556991355.6,286047001.5,N
1556991375.5,286047002.8,N
1556991395.3,286047002.4,N
1556991415.1,286046999.8,N
1556991435.9,286047000.6,N
1556991455.7,286047000.9,N
1556991475.5,286047000.5,N
1556991495.4,286047000.4,N
1556991515.2,286047001.5,N
1556991535.0,286047001.5,N
1556991535.9,286047001.5,N
1556991555.8,286047001.7,N
1556991575.6,286047002.0,N
1556991595.5,286047000.1,N
1556991615.3,286047000.8,N
1556991635.1,286046998.2,N
1556991655.9,286046998.1,N
1556991675.7,286046999.9,N
1556991695.6,286047002.5,N
1556991715.4,286047003.8,N
1556991735.2,286047001.3,N
1556991755.1,286047003.7,N
1556991756.0,286047003.7,N
1556991775.8,286047003.2,N
1556991795.7,286047004.0,N
1556991815.5,286047001.9,N
1556991835.3,286047001.9,N
1556991855.2,286047002.4,N
1556991875.0,286047001.4,N
1556991875.9,286047001.4,N
1556991895.7,286047002.1,N
1556991915.6,286047004.3,N
1556991935.4,286047006.0,Y
1556991955.3,286047001.9,P
1556991975.1,286047002.8,P
1556991995.8,286047002.0,P
1556992015.7,286047004.4,Y
1556992035.5,286046999.7,P
1556992055.4,286046999.8,N
1556992075.2,286047002.3,N
1556992095.0,286047000.2,N
1556992095.9,286047000.2,N
1556992115.8,286046998.1,N
1556992135.6,286047000.2,N
1556992155.4,286046999.7,N
1556992175.3,286047002.0,N
1556992195.1,286047000.8,N
1556992215.9,286047000.2,N
1556992235.7,286046998.7,N
1556992255.5,286046999.3,N
1556992275.4,286047000.0,N
1556992295.2,286047000.9,N
1556992315.0,286047000.7,N
1556992315.9,286047000.7,N
1556992335.8,286046998.6,N
1556992355.6,286046996.6,Y
1556992375.5,286046999.2,P
1556992395.3,286046999.2,N
1556992415.1,286046999.1,N
1556992435.9,286046998.4,Y
1556992455.7,286047000.3,P
1556992475.5,286046998.4,P
1556992495.4,286047000.6,N
1556992515.2,286047000.6,N
1556992535.1,286046999.7,N
1556992536.0,286046999.7,N
1556992555.8,286047003.3,Y
1556992575.6,286047002.5,P
1556992595.5,286047002.1,N
1556992615.3,286047002.2,N
1556992635.2,286047004.3,Y
1556992655.9,286047001.1,P
1556992675.7,286046996.9,P
1556992695.6,286046999.1,N
1556992715.4,286046996.5,N
1556992735.2,286046998.7,N
1556992755.1,286046998.3,N
1556992756.0,286046998.3,N
1556992775.8,286046998.6,N
1556992795.7,286046996.9,N
